Location: Burleson Fire Department Station 2
(32.5391°N, 97.3075°W)
Time: 00:52:19
(UTC+00:00)

NOAA 15 - Pass Details

Date: 21 December 2025
Orbit: 793 x 810 km, 98.5° (Epoch: 20 January)

Event Time Altitude Azimuth Distance (km) Brightness Sun altitude
Rises 02:30:30 0° 217° (SW) 3,310 8.3 -37.6°
Reaches altitude 10° 02:34:47 10° 251° (WSW) 2,383 7.7 -38.5°
Maximum altitude 02:36:19 11° 268° (W) 2,298 7.6 -38.8°
Drops below altitude 10° 02:37:52 10° 285° (WNW) 2,384 7.7 -39.1°
Sets 02:42:12 0° 319° (NW) 3,316 8.2 -40.1°
